| time (UTC) | temp F | wind direction | speed MPH | gust MPH | rain 1hr in | rain 24hr in | rain mn in | humidity % | barometer mb |
| 20260504025720 | 65 | 131 | 3.0 | 6.0 | 0.00 | 0.00 | 0.00 | 66 | 1016.6 |
| 20260504025218 | 65 | 130 | 4.0 | 6.0 | 0.00 | 0.00 | 0.00 | 66 | 1016.6 |
| 20260504024714 | 65 | 138 | 4.0 | 6.0 | 0.00 | 0.00 | 0.00 | 66 | 1016.6 |
| 20260504024442 | 66 | 125 | 4.0 | 7.0 | 0.00 | 0.00 | 0.00 | 65 | 1016.6 |
| 20260504023715 | 66 | 132 | 4.0 | 7.0 | 0.00 | 0.00 | 0.00 | 65 | 1016.6 |
| 20260504023219 | 66 | 133 | 5.0 | 8.0 | 0.00 | 0.00 | 0.00 | 65 | 1016.6 |
| 20260504022711 | 66 | 90 | 5.0 | 8.0 | 0.00 | 0.00 | 0.00 | 64 | 1016.5 |
| 20260504022212 | 66 | 132 | 5.0 | 7.0 | 0.00 | 0.00 | 0.00 | 64 | 1016.5 |
| 20260504021704 | 66 | 128 | 4.0 | 7.0 | 0.00 | 0.00 | 0.00 | 64 | 1016.5 |
| 20260504021147 | 67 | 137 | 4.0 | 7.0 | 0.00 | 0.00 | 0.00 | 64 | 1016.5 |
| 20260504020148 | 67 | 134 | 4.0 | 7.0 | 0.00 | 0.00 | 0.00 | 63 | 1016.5 |
| 20260504015645 | 67 | 147 | 4.0 | 7.0 | 0.00 | 0.00 | 0.00 | 63 | 1016.6 |
| 20260504015144 | 67 | 120 | 4.0 | 7.0 | 0.00 | 0.00 | 0.00 | 62 | 1016.6 |
| 20260504014641 | 68 | 143 | 4.0 | 7.0 | 0.00 | 0.00 | 0.00 | 62 | 1016.6 |
| 20260504014145 | 68 | 145 | 4.0 | 7.0 | 0.00 | 0.00 | 0.00 | 61 | 1016.5 |
| 20260504013643 | 68 | 125 | 4.0 | 7.0 | 0.00 | 0.00 | 0.00 | 61 | 1016.5 |
| 20260504013131 | 69 | 141 | 4.0 | 6.0 | 0.00 | 0.00 | 0.00 | 61 | 1016.5 |
| 20260504012621 | 69 | 145 | 4.0 | 7.0 | 0.00 | 0.00 | 0.00 | 61 | 1016.5 |
| 20260504012113 | 70 | 139 | 4.0 | 7.0 | 0.00 | 0.00 | 0.00 | 61 | 1016.5 |
| 20260504011607 | 70 | 138 | 4.0 | 10.0 | 0.00 | 0.00 | 0.00 | 60 | 1016.5 |
| 20260504011057 | 70 | 149 | 5.0 | 10.0 | 0.00 | 0.00 | 0.00 | 60 | 1016.6 |
| 20260504010543 | 71 | 147 | 6.0 | 10.0 | 0.00 | 0.00 | 0.00 | 60 | 1016.6 |
| 20260504010037 | 71 | 151 | 7.0 | 10.0 | 0.00 | 0.00 | 0.00 | 59 | 1016.6 |
| 20260504005531 | 71 | 149 | 7.0 | 9.0 | 0.00 | 0.00 | 0.00 | 59 | 1016.5 |
| 20260504005022 | 72 | 152 | 7.0 | 11.0 | 0.00 | 0.00 | 0.00 | 59 | 1016.5 |
| 20260504004511 | 72 | 159 | 7.0 | 11.0 | 0.00 | 0.00 | 0.00 | 58 | 1016.5 |
| 20260504004003 | 73 | 155 | 8.0 | 11.0 | 0.00 | 0.00 | 0.00 | 58 | 1016.5 |
| 20260504003453 | 73 | 90 | 8.0 | 11.0 | 0.00 | 0.00 | 0.00 | 58 | 1016.5 |
| 20260504002957 | 73 | 90 | 8.0 | 12.0 | 0.00 | 0.00 | 0.00 | 57 | 1016.5 |
| 20260504002453 | 73 | 155 | 9.0 | 14.0 | 0.00 | 0.00 | 0.00 | 57 | 1016.5 |
| 20260504002232 | 74 | 149 | 9.0 | 14.0 | 0.00 | 0.00 | 0.00 | 57 | 1016.5 |
| 20260504001452 | 74 | 148 | 8.0 | 16.0 | 0.00 | 0.00 | 0.00 | 57 | 1016.5 |
| 20260504001009 | 74 | 117 | 9.0 | 16.0 | 0.00 | 0.00 | 0.00 | 56 | 1016.6 |
| 20260504000451 | 75 | 147 | 9.0 | 17.0 | 0.00 | 0.00 | 0.00 | 56 | 1016.6 |
| 20260504000000 | 75 | 141 | 9.0 | 18.0 | 0.00 | 0.00 | 0.00 | 56 | 1016.6 |
| 20260503235451 | 75 | 90 | 9.0 | 18.0 | 0.00 | 0.00 | 0.00 | 56 | 1016.6 |
| 20260503234956 | 76 | 122 | 11.0 | 20.0 | 0.00 | 0.00 | 0.00 | 56 | 1016.6 |
| 20260503234500 | 76 | 157 | 10.0 | 20.0 | 0.00 | 0.00 | 0.00 | 56 | 1016.6 |
| 20260503233954 | 76 | 154 | 9.0 | 16.0 | 0.00 | 0.00 | 0.00 | 55 | 1016.6 |
| 20260503233447 | 76 | 90 | 9.0 | 16.0 | 0.00 | 0.00 | 0.00 | 55 | 1016.6 |
| 20260503232934 | 77 | 90 | 9.0 | 17.0 | 0.00 | 0.00 | 0.00 | 55 | 1016.6 |
| 20260503232427 | 77 | 149 | 9.0 | 17.0 | 0.00 | 0.00 | 0.00 | 55 | 1016.6 |
| 20260503231921 | 77 | 147 | 9.0 | 17.0 | 0.00 | 0.00 | 0.00 | 55 | 1016.6 |
| 20260503231411 | 77 | 90 | 8.0 | 16.0 | 0.00 | 0.00 | 0.00 | 55 | 1016.7 |
| 20260503230904 | 77 | 151 | 9.0 | 17.0 | 0.00 | 0.00 | 0.00 | 55 | 1016.7 |
| 20260503230354 | 77 | 143 | 9.0 | 18.0 | 0.00 | 0.00 | 0.00 | 55 | 1016.7 |
| 20260503225840 | 78 | 114 | 9.0 | 18.0 | 0.00 | 0.00 | 0.00 | 55 | 1016.6 |
| 20260503225335 | 78 | 90 | 9.0 | 18.0 | 0.00 | 0.00 | 0.00 | 55 | 1016.6 |
| 20260503224824 | 78 | 128 | 9.0 | 19.0 | 0.00 | 0.00 | 0.00 | 55 | 1016.6 |
| 20260503224540 | 78 | 90 | 9.0 | 19.0 | 0.00 | 0.00 | 0.00 | 55 | 1016.8 |
| 20260503223808 | 78 | 157 | 11.0 | 19.0 | 0.00 | 0.00 | 0.00 | 55 | 1016.8 |
| 20260503223304 | 78 | 184 | 11.0 | 19.0 | 0.00 | 0.00 | 0.00 | 55 | 1016.8 |
| 20260503222801 | 78 | 90 | 10.0 | 23.0 | 0.00 | 0.00 | 0.00 | 55 | 1017.0 |
| 20260503222300 | 78 | 153 | 11.0 | 23.0 | 0.00 | 0.00 | 0.00 | 55 | 1017.0 |
| 20260503221800 | 79 | 90 | 13.0 | 23.0 | 0.00 | 0.00 | 0.00 | 55 | 1017.0 |
| 20260503221518 | 79 | 160 | 12.0 | 23.0 | 0.00 | 0.00 | 0.00 | 55 | 1017.1 |
| 20260503221022 | 79 | 167 | 11.0 | 22.0 | 0.00 | 0.00 | 0.00 | 55 | 1017.1 |
| 20260503215803 | 79 | 167 | 11.0 | 22.0 | 0.00 | 0.00 | 0.00 | 55 | 1017.4 |
| 20260503215304 | 80 | 183 | 11.0 | 18.0 | 0.00 | 0.00 | 0.00 | 55 | 1017.4 |
| 20260503215044 | 80 | 90 | 11.0 | 20.0 | 0.00 | 0.00 | 0.00 | 55 | 1017.4 |
| 20260503214253 | 80 | 90 | 10.0 | 20.0 | 0.00 | 0.00 | 0.00 | 55 | 1017.6 |
| 20260503213754 | 80 | 170 | 10.0 | 16.0 | 0.00 | 0.00 | 0.00 | 55 | 1017.6 |
| 20260503213250 | 80 | 152 | 11.0 | 23.0 | 0.00 | 0.00 | 0.00 | 55 | 1017.6 |
| 20260503212750 | 80 | 192 | 12.0 | 23.0 | 0.00 | 0.00 | 0.00 | 55 | 1017.8 |
| 20260503212253 | 80 | 186 | 12.0 | 23.0 | 0.00 | 0.00 | 0.00 | 55 | 1017.8 |
| 20260503211800 | 80 | 90 | 13.0 | 23.0 | 0.00 | 0.00 | 0.00 | 54 | 1017.8 |
| 20260503211254 | 81 | 167 | 12.0 | 19.0 | 0.00 | 0.00 | 0.00 | 54 | 1017.8 |
| 20260503211022 | 81 | 141 | 11.0 | 21.0 | 0.00 | 0.00 | 0.00 | 54 | 1017.8 |
| 20260503210233 | 81 | 196 | 11.0 | 21.0 | 0.00 | 0.00 | 0.00 | 54 | 1017.8 |
| 20260503205722 | 82 | 156 | 11.0 | 21.0 | 0.00 | 0.00 | 0.00 | 54 | 1018.0 |
| 20260503205212 | 82 | 90 | 12.0 | 22.0 | 0.00 | 0.00 | 0.00 | 54 | 1018.0 |
| 20260503204701 | 82 | 90 | 11.0 | 22.0 | 0.00 | 0.00 | 0.00 | 53 | 1018.0 |
| 20260503204156 | 83 | 90 | 9.0 | 16.0 | 0.00 | 0.00 | 0.00 | 53 | 1018.2 |
| 20260503203646 | 82 | 156 | 9.0 | 16.0 | 0.00 | 0.00 | 0.00 | 53 | 1018.2 |
| 20260503203145 | 82 | 160 | 8.0 | 16.0 | 0.00 | 0.00 | 0.00 | 53 | 1018.2 |
| 20260503202639 | 82 | 110 | 8.0 | 16.0 | 0.00 | 0.00 | 0.00 | 53 | 1018.3 |
| 20260503202145 | 82 | 160 | 8.0 | 16.0 | 0.00 | 0.00 | 0.00 | 53 | 1018.3 |
| 20260503201905 | 82 | 90 | 7.0 | 14.0 | 0.00 | 0.00 | 0.00 | 53 | 1018.3 |
| 20260503201142 | 82 | 90 | 6.0 | 11.0 | 0.00 | 0.00 | 0.00 | 53 | 1018.5 |
| 20260503200642 | 82 | 153 | 6.0 | 13.0 | 0.00 | 0.00 | 0.00 | 54 | 1018.5 |
| 20260503200144 | 82 | 90 | 6.0 | 13.0 | 0.00 | 0.00 | 0.00 | 54 | 1018.5 |
| 20260503195642 | 81 | 107 | 7.0 | 11.0 | 0.00 | 0.00 | 0.00 | 54 | 1018.8 |
| 20260503195140 | 81 | 151 | 6.0 | 15.0 | 0.00 | 0.00 | 0.00 | 54 | 1018.8 |
| 20260503194637 | 80 | 90 | 5.0 | 15.0 | 0.00 | 0.00 | 0.00 | 54 | 1018.8 |
| 20260503194127 | 80 | 131 | 5.0 | 11.0 | 0.00 | 0.00 | 0.00 | 55 | 1019.0 |
| 20260503193114 | 79 | 99 | 5.0 | 11.0 | 0.00 | 0.00 | 0.00 | 55 | 1019.0 |
| 20260503192554 | 79 | 103 | 4.0 | 10.0 | 0.00 | 0.00 | 0.00 | 55 | 1019.2 |
| 20260503192042 | 79 | 14 | 5.0 | 9.0 | 0.00 | 0.00 | 0.00 | 55 | 1019.2 |
| 20260503191532 | 79 | 66 | 4.0 | 12.0 | 0.00 | 0.00 | 0.00 | 55 | 1019.2 |
| 20260503191020 | 79 | 101 | 4.0 | 12.0 | 0.00 | 0.00 | 0.00 | 56 | 1019.4 |
| 20260503190521 | 79 | 103 | 6.0 | 12.0 | 0.00 | 0.00 | 0.00 | 56 | 1019.4 |
| 20260503190024 | 78 | 70 | 6.0 | 12.0 | 0.00 | 0.00 | 0.00 | 56 | 1019.4 |
| 20260503185522 | 79 | 101 | 5.0 | 10.0 | 0.00 | 0.00 | 0.00 | 57 | 1019.7 |
| 20260503185022 | 79 | 85 | 4.0 | 10.0 | 0.00 | 0.00 | 0.00 | 57 | 1019.7 |
| 20260503184518 | 79 | 72 | 4.0 | 10.0 | 0.00 | 0.00 | 0.00 | 57 | 1019.7 |
| 20260503184019 | 78 | 123 | 4.0 | 10.0 | 0.00 | 0.00 | 0.00 | 58 | 1019.8 |
| 20260503183519 | 78 | 55 | 5.0 | 10.0 | 0.00 | 0.00 | 0.00 | 58 | 1019.8 |
| 20260503183020 | 78 | 53 | 5.0 | 10.0 | 0.00 | 0.00 | 0.00 | 59 | 1019.8 |
| 20260503182519 | 78 | 77 | 5.0 | 11.0 | 0.00 | 0.00 | 0.00 | 59 | 1020.2 |
| 20260503182020 | 78 | 112 | 5.0 | 11.0 | 0.00 | 0.00 | 0.00 | 59 | 1020.2 |
| 20260503181520 | 78 | 103 | 6.0 | 14.0 | 0.00 | 0.00 | 0.00 | 60 | 1020.2 |
| 20260503181022 | 78 | 124 | 6.0 | 14.0 | 0.00 | 0.00 | 0.00 | 60 | 1020.2 |
| 20260503180734 | 78 | 77 | 5.0 | 12.0 | 0.00 | 0.00 | 0.00 | 61 | 1020.2 |
| 20260503180005 | 78 | 45 | 6.0 | 12.0 | 0.00 | 0.00 | 0.00 | 61 | 1020.2 |
| 20260503175504 | 78 | 90 | 6.0 | 12.0 | 0.00 | 0.00 | 0.00 | 61 | 1020.5 |
| 20260503174946 | 78 | 90 | 5.0 | 11.0 | 0.00 | 0.00 | 0.00 | 62 | 1020.5 |
| 20260503174659 | 78 | 125 | 3.0 | 10.0 | 0.00 | 0.00 | 0.00 | 63 | 1020.8 |
| 20260503173935 | 78 | 105 | 4.0 | 7.0 | 0.00 | 0.00 | 0.00 | 64 | 1020.8 |
| 20260503173430 | 78 | 95 | 5.0 | 9.0 | 0.00 | 0.00 | 0.00 | 64 | 1020.8 |
| 20260503172933 | 78 | 90 | 5.0 | 10.0 | 0.00 | 0.00 | 0.00 | 65 | 1021.1 |
| 20260503172658 | 77 | 90 | 5.0 | 10.0 | 0.00 | 0.00 | 0.00 | 65 | 1021.1 |
| 20260503171931 | 77 | 159 | 5.0 | 10.0 | 0.00 | 0.00 | 0.00 | 66 | 1021.1 |
| 20260503171659 | 77 | 123 | 5.0 | 10.0 | 0.00 | 0.00 | 0.00 | 66 | 1021.2 |
| 20260503170930 | 77 | 151 | 5.0 | 9.0 | 0.00 | 0.00 | 0.00 | 67 | 1021.2 |
| 20260503151010 | 71 | 104 | 3.0 | 6.0 | 0.00 | 0.00 | 0.00 | 82 | 1021.0 |
| 20260503150509 | 71 | 117 | 3.0 | 5.0 | 0.00 | 0.00 | 0.00 | 82 | 1021.0 |
| 20260503130928 | 60 | 11 | 3.0 | 4.0 | 0.00 | 0.00 | 0.00 | 84 | 1020.3 |
| 20260503130428 | 60 | 7 | 3.0 | 5.0 | 0.00 | 0.00 | 0.00 | 84 | 1020.3 |
| 20260503110809 | 57 | 43 | 2.0 | 3.0 | 0.00 | 0.00 | 0.00 | 81 | 1019.3 |
| 20260503110309 | 57 | 43 | 2.0 | 3.0 | 0.00 | 0.00 | 0.00 | 81 | 1019.3 |
| 20260503100126 | 58 | 42 | 2.0 | 4.0 | 0.00 | 0.00 | 0.00 | 80 | 1019.2 |
| 20260503090109 | 59 | 26 | 2.0 | 3.0 | 0.00 | 0.00 | 0.00 | 79 | 1018.9 |
| 20260503081555 | 60 | 26 | 2.0 | 3.0 | 0.00 | 0.00 | 0.00 | 78 | 1019.2 |
| 20260503081053 | 60 | 26 | 2.0 | 3.0 | 0.00 | 0.00 | 0.00 | 78 | 1019.2 |
| 20260503080541 | 60 | 26 | 2.0 | 3.0 | 0.00 | 0.00 | 0.00 | 78 | 1019.2 |
| 20260503072513 | 62 | 5 | 0.0 | 2.0 | 0.00 | 0.00 | 0.00 | 77 | 1019.2 |
| 20260503072011 | 62 | 5 | 1.0 | 3.0 | 0.00 | 0.00 | 0.00 | 77 | 1019.2 |
| 20260503071508 | 63 | 5 | 1.0 | 3.0 | 0.00 | 0.00 | 0.00 | 77 | 1019.2 |
| 20260503071007 | 63 | 5 | 2.0 | 4.0 | 0.00 | 0.00 | 0.00 | 77 | 1019.2 |
| 20260503070507 | 63 | 5 | 3.0 | 4.0 | 0.00 | 0.00 | 0.00 | 77 | 1019.2 |
| 20260503054939 | 64 | 2 | 3.0 | 4.0 | 0.00 | 0.00 | 0.00 | 75 | 1018.8 |
| 20260503054436 | 65 | 358 | 4.0 | 5.0 | 0.00 | 0.00 | 0.00 | 75 | 1018.7 |
| 20260503053935 | 65 | 357 | 4.0 | 6.0 | 0.00 | 0.00 | 0.00 | 75 | 1018.7 |
| 20260503053424 | 65 | 7 | 4.0 | 7.0 | 0.00 | 0.00 | 0.00 | 74 | 1018.7 |
| 20260503052919 | 65 | 5 | 5.0 | 8.0 | 0.00 | 0.00 | 0.00 | 75 | 1018.6 |
| 20260503052405 | 65 | 348 | 5.0 | 8.0 | 0.00 | 0.00 | 0.00 | 74 | 1018.6 |
| 20260503051854 | 66 | 349 | 5.0 | 8.0 | 0.00 | 0.00 | 0.00 | 74 | 1018.6 |
| 20260503050847 | 66 | 349 | 6.0 | 10.0 | 0.00 | 0.00 | 0.00 | 74 | 1018.7 |
| 20260503050345 | 65 | 344 | 7.0 | 10.0 | 0.00 | 0.00 | 0.00 | 74 | 1018.7 |
| 20260503045845 | 65 | 348 | 5.0 | 8.0 | 0.00 | 0.00 | 0.00 | 74 | 1018.6 |
| 20260503045344 | 65 | 338 | 5.0 | 8.0 | 0.00 | 0.00 | 0.00 | 73 | 1018.6 |
| 20260503044845 | 65 | 353 | 6.0 | 8.0 | 0.00 | 0.00 | 0.00 | 73 | 1018.6 |
| 20260503044344 | 65 | 351 | 5.0 | 8.0 | 0.00 | 0.00 | 0.00 | 73 | 1018.7 |
| 20260503043844 | 65 | 356 | 5.0 | 8.0 | 0.00 | 0.00 | 0.00 | 73 | 1018.7 |
| 20260503043342 | 65 | 347 | 5.0 | 7.0 | 0.00 | 0.00 | 0.00 | 73 | 1018.7 |
| 20260503042844 | 65 | 355 | 5.0 | 7.0 | 0.00 | 0.00 | 0.00 | 72 | 1018.7 |
| 20260503042344 | 65 | 345 | 5.0 | 6.0 | 0.00 | 0.00 | 0.00 | 72 | 1018.7 |
| 20260503041841 | 65 | 8 | 4.0 | 6.0 | 0.00 | 0.00 | 0.00 | 72 | 1018.7 |
| 20260503040834 | 65 | 4 | 4.0 | 6.0 | 0.00 | 0.00 | 0.00 | 72 | 1018.7 |
| 20260503035817 | 65 | 357 | 4.0 | 5.0 | 0.00 | 0.00 | 0.00 | 72 | 1018.7 |
| 20260503035307 | 65 | 3 | 4.0 | 5.0 | 0.00 | 0.00 | 0.00 | 71 | 1018.7 |
| 20260503034758 | 65 | 9 | 4.0 | 5.0 | 0.00 | 0.00 | 0.00 | 71 | 1018.7 |
| 20260503034252 | 65 | 357 | 4.0 | 6.0 | 0.00 | 0.00 | 0.00 | 71 | 1018.4 |
| 20260503033741 | 65 | 354 | 4.0 | 6.0 | 0.00 | 0.00 | 0.00 | 71 | 1018.4 |
| 20260503033231 | 65 | 3 | 4.0 | 6.0 | 0.00 | 0.00 | 0.00 | 70 | 1018.4 |
| 20260503032726 | 65 | 359 | 5.0 | 6.0 | 0.00 | 0.00 | 0.00 | 70 | 1018.1 |
| 20260503032220 | 65 | 3 | 4.0 | 6.0 | 0.00 | 0.00 | 0.00 | 70 | 1018.1 |
| 20260503031717 | 65 | 3 | 4.0 | 5.0 | 0.00 | 0.00 | 0.00 | 70 | 1018.1 |
| 20260503031424 | 65 | 358 | 3.0 | 5.0 | 0.00 | 0.00 | 0.00 | 70 | 1017.9 |
| 20260503030649 | 65 | 12 | 3.0 | 5.0 | 0.00 | 0.00 | 0.00 | 69 | 1017.9 |
| 20260503030140 | 65 | 11 | 3.0 | 5.0 | 0.00 | 0.00 | 0.00 | 69 | 1017.9 |